Watsonville, CA

5:24 AM PDT on June 26, 2017 (GMT -0700)
Watsonville Municipal

Weather History for KWVI - February, 2012

Change the Weather History Date:

Tuesday, February 28, 2012

  Actual Average Record
Temperature  
Mean Temperature 46 °F 52 °F  
Max Temperature 57 °F 62 °F 71 °F (2002)
Min Temperature 35 °F 44 °F 34 °F (2011)
Degree Days  
Heating Degree Days 19    
Month to date heating degree days 304  
Since 1 July heating degree days 1792  
Cooling Degree Days 0    
Month to date cooling degree days 0  
Year to date cooling degree days 0  
Moisture  
Dew Point 34 °F    
Average Humidity 60    
Maximum Humidity 76    
Minimum Humidity 43    
Precipitation  
Precipitation T in - 1.68 in (2014)
Month to date precipitation 0.61  
Year to date precipitation 3.30  
Since 1 July precipitation 7.59  
Sea Level Pressure  
Sea Level Pressure 30.21 in    
Wind  
Wind Speed 4 mph (West)    
Max Wind Speed 14 mph    
Max Gust Speed 30 mph    
Visibility 10 miles    
Events Rain    
T = Trace of Precipitation, MM = Missing Value Source: NWS Daily Summary

Daily Weather History Graph

Daily Weather History Graph

Search for Another Location

Airport or City:

Trip Planner

Search our weather history database for the weather conditions in past years. The results will help you decide how hot, cold, wet, or windy it might be!

Date:

Astronomy

Feb. 28, 2012 Rise Set
Actual Time 6:39 AM PST 6:00 PM PST
Civil Twilight 6:13 AM PST 6:26 PM PST
Nautical Twilight 5:43 AM PST 6:56 PM PST
Astronomical Twilight 5:13 AM PST 7:26 PM PST
Moon 10:01 AM PST (2/28) No Moon Set
Length of Visible Light 12h 12m
Length of Day
11h 20m
Waxing Crescent, 39% of the Moon is Illuminated
Feb 28
Waxing Crescent
Feb 29
First Quarter
Mar 8
Full
Mar 14
Last Quarter
Mar 22
New

Hourly Weather History & Observations

Time (PST) Temp. Windchill Dew Point Humidity Pressure Visibility Wind Dir Wind Speed Gust Speed Precip Events Conditions
12:53 AM 37.9 °F 34.4 °F 30.9 °F 76% 30.04 in 10.0 mi WNW 4.6 mph - N/A   Clear
1:53 AM 37.9 °F 34.4 °F 30.9 °F 76% 30.05 in 10.0 mi NW 4.6 mph - N/A   Clear
2:53 AM 37.9 °F 34.4 °F 30.9 °F 76% 30.07 in 10.0 mi NW 4.6 mph - N/A   Clear
3:53 AM 37.0 °F 33.3 °F 30.9 °F 79% 30.10 in 10.0 mi WNW 4.6 mph - N/A   Clear
4:53 AM 37.0 °F 32.4 °F 30.9 °F 79% 30.13 in 10.0 mi NW 5.8 mph - N/A   Mostly Cloudy
5:03 AM 37.4 °F 34.9 °F 30.2 °F 75% 30.13 in 10.0 mi NW 3.5 mph - N/A   Mostly Cloudy
5:53 AM 37.0 °F 34.5 °F 30.9 °F 79% 30.16 in 10.0 mi West 3.5 mph - N/A   Mostly Cloudy
6:53 AM 37.9 °F 34.4 °F 30.9 °F 76% 30.18 in 10.0 mi NW 4.6 mph - N/A   Scattered Clouds
7:53 AM 42.1 °F - 34.0 °F 73% 30.22 in 10.0 mi Calm Calm - N/A   Mostly Cloudy
8:53 AM 46.9 °F - 36.0 °F 66% 30.25 in 10.0 mi Calm Calm - N/A   Mostly Cloudy
9:53 AM 50.0 °F - 37.9 °F 63% 30.26 in 10.0 mi Calm Calm - N/A   Mostly Cloudy
10:53 AM 54.0 °F - 37.9 °F 55% 30.27 in 10.0 mi South 5.8 mph - N/A   Scattered Clouds
11:53 AM 55.9 °F - 36.0 °F 47% 30.27 in 10.0 mi SW 10.4 mph 17.3 mph N/A   Partly Cloudy
12:53 PM 55.0 °F - 36.0 °F 49% 30.27 in 10.0 mi SSW 12.7 mph 20.7 mph N/A   Clear
1:53 PM 55.9 °F - 35.1 °F 45% 30.25 in 10.0 mi SW 11.5 mph - N/A   Clear
2:53 PM 55.0 °F - 33.1 °F 43% 30.25 in 10.0 mi SW 9.2 mph - N/A   Clear
3:53 PM 54.0 °F - 32.0 °F 43% 30.25 in 10.0 mi SSW 8.1 mph - N/A   Clear
4:53 PM 52.0 °F - 32.0 °F 47% 30.26 in 10.0 mi SW 10.4 mph - N/A   Clear
5:53 PM 50.0 °F - 34.0 °F 54% 30.26 in 10.0 mi Calm Calm - N/A   Clear
6:53 PM 50.0 °F - 35.1 °F 57% 30.27 in 10.0 mi Calm Calm - N/A   Clear
7:53 PM 48.0 °F - 35.1 °F 61% 30.27 in 10.0 mi NW 3.5 mph - N/A   Clear
8:53 PM 48.0 °F - 36.0 °F 63% 30.27 in 10.0 mi Calm Calm - N/A   Overcast
9:53 PM 48.9 °F - 37.0 °F 64% 30.27 in 10.0 mi Calm Calm - N/A   Overcast
10:53 PM 48.9 °F - 37.9 °F 66% 30.25 in 10.0 mi Calm Calm - N/A   Overcast
11:53 PM 48.9 °F - 39.0 °F 69% 30.25 in 8.0 mi Calm Calm - 0.00 in Rain Light Rain